Terminal Aerodrome Forecast
Issued by NWS Mobile, AL

Home | Current Version | Previous Version | Text Only | Print | Product List | Glossary On
Versions: 1 2 3 4 5 6 7 8 9 10 11 12 13 14 15 16 17 18 19 20 21 22 23 24 25 26 27 28 29 30 31 32 33 34 35
000
FTUS44 KMOB 250500
TAFMOB
TAF
KMOB 250523Z 2506/2606 00000KT P6SM SKC
     FM251000 19002KT P6SM VCSH SCT025
     FM251600 23007KT P6SM VCTS SCT035CB PROB30 2518/2522 3SM TSRA
      BKN035CB=

USA.gov is the U.S. government's official web portal to all federal, state and local government web resources and services.